Year,Month,Day,Hour,Minute,Value (Times are PST for temperature in C)
2015,04,29,00,00,9.60
2015,04,29,00,01,9.60
2015,04,29,00,02,9.60
2015,04,29,00,03,9.60
2015,04,29,00,04,9.50
2015,04,29,00,05,9.50
2015,04,29,00,06,9.40
2015,04,29,00,07,9.40
2015,04,29,00,08,9.40
2015,04,29,00,09,9.30
2015,04,29,00,10,9.30
2015,04,29,00,11,9.30
2015,04,29,00,12,9.20
2015,04,29,00,13,9.20
2015,04,29,00,14,9.20
2015,04,29,00,15,9.10
2015,04,29,00,16,9.10
2015,04,29,00,17,9.00
2015,04,29,00,18,8.90
2015,04,29,00,19,8.90
2015,04,29,00,20,8.80
2015,04,29,00,21,8.80
2015,04,29,00,22,8.70
2015,04,29,00,23,8.70
2015,04,29,00,24,8.60
2015,04,29,00,25,8.60
2015,04,29,00,26,8.60
2015,04,29,00,27,8.50
2015,04,29,00,28,8.50
2015,04,29,00,29,8.40
2015,04,29,00,30,8.40
2015,04,29,00,31,8.40
2015,04,29,00,32,8.30
2015,04,29,00,33,8.30
2015,04,29,00,34,8.30
2015,04,29,00,35,8.30
2015,04,29,00,36,8.20
2015,04,29,00,37,8.20
2015,04,29,00,38,8.20
2015,04,29,00,39,8.20
2015,04,29,00,40,8.20
2015,04,29,00,41,8.10
2015,04,29,00,42,8.10
2015,04,29,00,43,8.10
2015,04,29,00,44,8.10
2015,04,29,00,45,8.10
2015,04,29,00,46,8.10
2015,04,29,00,47,8.00
2015,04,29,00,48,8.00
2015,04,29,00,49,8.00
2015,04,29,00,50,7.90
2015,04,29,00,51,7.90
2015,04,29,00,52,7.90
2015,04,29,00,53,7.90
2015,04,29,00,54,7.90
2015,04,29,00,55,7.90
2015,04,29,00,56,7.90
2015,04,29,00,57,7.90
2015,04,29,00,58,7.90
2015,04,29,00,59,7.90
2015,04,29,01,00,7.90
2015,04,29,01,01,7.90
2015,04,29,01,02,7.90
2015,04,29,01,03,7.90
2015,04,29,01,04,7.90
2015,04,29,01,05,7.90
2015,04,29,01,06,7.90
2015,04,29,01,07,8.00
2015,04,29,01,08,7.90
2015,04,29,01,09,7.90
2015,04,29,01,10,7.90
2015,04,29,01,11,7.90
2015,04,29,01,12,7.90
2015,04,29,01,13,7.90
2015,04,29,01,14,7.90
2015,04,29,01,15,7.90
2015,04,29,01,16,7.90
2015,04,29,01,17,7.90
2015,04,29,01,18,7.90
2015,04,29,01,19,7.80
2015,04,29,01,20,7.80
2015,04,29,01,21,7.80
2015,04,29,01,22,7.80
2015,04,29,01,23,7.80
2015,04,29,01,24,7.80
2015,04,29,01,25,7.70
2015,04,29,01,26,7.70
2015,04,29,01,27,7.70
2015,04,29,01,28,7.70
2015,04,29,01,29,7.70
2015,04,29,01,30,7.70
2015,04,29,01,31,7.70
2015,04,29,01,32,7.70
2015,04,29,01,33,7.70
2015,04,29,01,34,7.70
2015,04,29,01,35,7.70
2015,04,29,01,36,7.70
2015,04,29,01,37,7.70
2015,04,29,01,38,7.70
2015,04,29,01,39,7.70
2015,04,29,01,40,7.70
2015,04,29,01,41,7.70
2015,04,29,01,42,7.70
2015,04,29,01,43,7.70
2015,04,29,01,44,7.70
2015,04,29,01,45,7.70
2015,04,29,01,46,7.70
2015,04,29,01,47,7.60
2015,04,29,01,48,7.60
2015,04,29,01,49,7.60
2015,04,29,01,50,7.60
2015,04,29,01,51,7.60
2015,04,29,01,52,7.60
2015,04,29,01,53,7.60
2015,04,29,01,54,7.60
2015,04,29,01,55,7.60
2015,04,29,01,56,7.60
2015,04,29,01,57,7.60
2015,04,29,01,58,7.60
2015,04,29,01,59,7.60
2015,04,29,02,00,7.60
2015,04,29,02,01,7.60
2015,04,29,02,02,7.60
2015,04,29,02,03,7.60
2015,04,29,02,04,7.60
2015,04,29,02,05,7.60
2015,04,29,02,06,7.60
2015,04,29,02,07,7.60
2015,04,29,02,08,7.60
2015,04,29,02,09,7.60
2015,04,29,02,10,7.60
2015,04,29,02,11,7.60
2015,04,29,02,12,7.60
2015,04,29,02,13,7.60
2015,04,29,02,14,7.60
2015,04,29,02,15,7.60
2015,04,29,02,16,7.60
2015,04,29,02,17,7.60
2015,04,29,02,18,7.60
2015,04,29,02,19,7.60
2015,04,29,02,20,7.60
2015,04,29,02,21,7.60
2015,04,29,02,22,7.60
2015,04,29,02,23,7.60
2015,04,29,02,24,7.60
2015,04,29,02,25,7.60
2015,04,29,02,26,7.60
2015,04,29,02,27,7.60
2015,04,29,02,28,7.60
2015,04,29,02,29,7.60
2015,04,29,02,30,7.60
2015,04,29,02,31,7.60
2015,04,29,02,32,7.60
2015,04,29,02,33,7.50
2015,04,29,02,34,7.50
2015,04,29,02,35,7.50
2015,04,29,02,36,7.50
2015,04,29,02,37,7.50
2015,04,29,02,38,7.40
2015,04,29,02,39,7.40
2015,04,29,02,40,7.40
2015,04,29,02,41,7.40
2015,04,29,02,42,7.40
2015,04,29,02,43,7.40
2015,04,29,02,44,7.40
2015,04,29,02,45,7.30
2015,04,29,02,46,7.30
2015,04,29,02,47,7.30
2015,04,29,02,48,7.30
2015,04,29,02,49,7.20
2015,04,29,02,50,7.20
2015,04,29,02,51,7.20
2015,04,29,02,52,7.20
2015,04,29,02,53,7.20
2015,04,29,02,54,7.10
2015,04,29,02,55,7.10
2015,04,29,02,56,7.10
2015,04,29,02,57,7.10
2015,04,29,02,58,7.10
2015,04,29,02,59,7.00
2015,04,29,03,00,7.00
2015,04,29,03,01,7.00
2015,04,29,03,02,6.90
2015,04,29,03,03,6.90
2015,04,29,03,04,6.90
2015,04,29,03,05,6.80
2015,04,29,03,06,6.80
2015,04,29,03,07,6.80
2015,04,29,03,08,6.80
2015,04,29,03,09,6.80
2015,04,29,03,10,6.80
2015,04,29,03,11,6.70
2015,04,29,03,12,6.70
2015,04,29,03,13,6.70
2015,04,29,03,14,6.70
2015,04,29,03,15,6.70
2015,04,29,03,16,6.60
2015,04,29,03,17,6.60
2015,04,29,03,18,6.60
2015,04,29,03,19,6.60
2015,04,29,03,20,6.60
2015,04,29,03,21,6.60
2015,04,29,03,22,6.50
2015,04,29,03,23,6.50
2015,04,29,03,24,6.50
2015,04,29,03,25,6.50
2015,04,29,03,26,6.40
2015,04,29,03,27,6.40
2015,04,29,03,28,6.40
2015,04,29,03,29,6.40
2015,04,29,03,30,6.40
2015,04,29,03,31,6.40
2015,04,29,03,32,6.40
2015,04,29,03,33,6.40
2015,04,29,03,34,6.40
2015,04,29,03,35,6.40
2015,04,29,03,36,6.40
2015,04,29,03,37,6.30
2015,04,29,03,38,6.40
2015,04,29,03,39,6.40
2015,04,29,03,40,6.40
2015,04,29,03,41,6.40
2015,04,29,03,42,6.40
2015,04,29,03,43,6.30
2015,04,29,03,44,6.30
2015,04,29,03,45,6.30
2015,04,29,03,46,6.30
2015,04,29,03,47,6.30
2015,04,29,03,48,6.30
2015,04,29,03,49,6.30
2015,04,29,03,50,6.30
2015,04,29,03,51,6.30
2015,04,29,03,52,6.30
2015,04,29,03,53,6.30
2015,04,29,03,54,6.40
2015,04,29,03,55,6.40
2015,04,29,03,56,6.40
2015,04,29,03,57,6.40
2015,04,29,03,58,6.40
2015,04,29,03,59,6.50
2015,04,29,04,00,6.50
2015,04,29,04,01,6.60
2015,04,29,04,02,6.60
2015,04,29,04,03,6.60
2015,04,29,04,04,6.70
2015,04,29,04,05,6.70
2015,04,29,04,06,6.70
2015,04,29,04,07,6.70
2015,04,29,04,08,6.70
2015,04,29,04,09,6.70
2015,04,29,04,10,6.70
2015,04,29,04,11,6.70
2015,04,29,04,12,6.70
2015,04,29,04,13,6.70
2015,04,29,04,14,6.70
2015,04,29,04,15,6.70
2015,04,29,04,16,6.70
2015,04,29,04,17,6.70
2015,04,29,04,18,6.70
2015,04,29,04,19,6.70
2015,04,29,04,20,6.80
2015,04,29,04,21,6.70
2015,04,29,04,22,6.70
2015,04,29,04,23,6.70
2015,04,29,04,24,6.70
2015,04,29,04,25,6.70
2015,04,29,04,26,6.70
2015,04,29,04,27,6.70
2015,04,29,04,28,6.70
2015,04,29,04,29,6.70
2015,04,29,04,30,6.70
2015,04,29,04,31,6.70
2015,04,29,04,32,6.70
2015,04,29,04,33,6.70
2015,04,29,04,34,6.70
2015,04,29,04,35,6.70
2015,04,29,04,36,6.70
2015,04,29,04,37,6.70
2015,04,29,04,38,6.70
2015,04,29,04,39,6.70
2015,04,29,04,40,6.60
2015,04,29,04,41,6.60
2015,04,29,04,42,6.60
2015,04,29,04,43,6.60
2015,04,29,04,44,6.50
2015,04,29,04,45,6.50
2015,04,29,04,46,6.50
2015,04,29,04,47,6.40
2015,04,29,04,48,6.40
2015,04,29,04,49,6.40
2015,04,29,04,50,6.40
2015,04,29,04,51,6.40
2015,04,29,04,52,6.30
2015,04,29,04,53,6.30
2015,04,29,04,54,6.30
2015,04,29,04,55,6.30
2015,04,29,04,56,6.30
2015,04,29,04,57,6.30
2015,04,29,04,58,6.30
2015,04,29,04,59,6.30
2015,04,29,05,00,6.30
2015,04,29,05,01,6.30
2015,04,29,05,02,6.30
2015,04,29,05,03,6.40
2015,04,29,05,04,6.40
2015,04,29,05,05,6.40
2015,04,29,05,06,6.40
2015,04,29,05,07,6.50
2015,04,29,05,08,6.50
2015,04,29,05,09,6.50
2015,04,29,05,10,6.50
2015,04,29,05,11,6.60
2015,04,29,05,12,6.60
2015,04,29,05,13,6.60
2015,04,29,05,14,6.60
2015,04,29,05,15,6.70
2015,04,29,05,16,6.70
2015,04,29,05,17,6.70
2015,04,29,05,18,6.70
2015,04,29,05,19,6.70
2015,04,29,05,20,6.80
2015,04,29,05,21,6.80
2015,04,29,05,22,6.80
2015,04,29,05,23,6.80
2015,04,29,05,24,6.80
2015,04,29,05,25,6.80
2015,04,29,05,26,6.80
2015,04,29,05,27,6.80
2015,04,29,05,28,6.80
2015,04,29,05,29,6.80
2015,04,29,05,30,6.80
2015,04,29,05,31,6.80
2015,04,29,05,32,6.80
2015,04,29,05,33,6.80
2015,04,29,05,34,6.80
2015,04,29,05,35,6.80
2015,04,29,05,36,6.80
2015,04,29,05,37,6.80
2015,04,29,05,38,6.80
2015,04,29,05,39,6.80
2015,04,29,05,40,6.80
2015,04,29,05,41,6.80
2015,04,29,05,42,6.80
2015,04,29,05,43,6.80
2015,04,29,05,44,6.80
2015,04,29,05,45,6.80
2015,04,29,05,46,6.70
2015,04,29,05,47,6.70
2015,04,29,05,48,6.70
2015,04,29,05,49,6.70
2015,04,29,05,50,6.70
2015,04,29,05,51,6.70
2015,04,29,05,52,6.70
2015,04,29,05,53,6.70
2015,04,29,05,54,6.70
2015,04,29,05,55,6.70
2015,04,29,05,56,6.70
2015,04,29,05,57,6.70
2015,04,29,05,58,6.80
2015,04,29,05,59,6.80
2015,04,29,06,00,6.80
2015,04,29,06,01,6.80
2015,04,29,06,02,6.80
2015,04,29,06,03,6.80
2015,04,29,06,04,6.80
2015,04,29,06,05,6.80
2015,04,29,06,06,6.80
2015,04,29,06,07,6.80
2015,04,29,06,08,6.90
2015,04,29,06,09,6.90
2015,04,29,06,10,6.90
2015,04,29,06,11,6.90
2015,04,29,06,12,6.90
2015,04,29,06,13,7.00
2015,04,29,06,14,7.00
2015,04,29,06,15,7.00
2015,04,29,06,16,7.00
2015,04,29,06,17,7.10
2015,04,29,06,18,7.10
2015,04,29,06,19,7.10
2015,04,29,06,20,7.10
2015,04,29,06,21,7.10
2015,04,29,06,22,7.10
2015,04,29,06,23,7.10
2015,04,29,06,24,7.10
2015,04,29,06,25,7.20
2015,04,29,06,26,7.20
2015,04,29,06,27,7.20
2015,04,29,06,28,7.20
2015,04,29,06,29,7.30
2015,04,29,06,30,7.30
2015,04,29,06,31,7.30
2015,04,29,06,32,7.30
2015,04,29,06,33,7.40
2015,04,29,06,34,7.40
2015,04,29,06,35,7.40
2015,04,29,06,36,7.40
2015,04,29,06,37,7.50
2015,04,29,06,38,7.60
2015,04,29,06,39,7.60
2015,04,29,06,40,7.70
2015,04,29,06,41,7.70
2015,04,29,06,42,7.80
2015,04,29,06,43,7.80
2015,04,29,06,44,7.90
2015,04,29,06,45,7.90
2015,04,29,06,46,7.90
2015,04,29,06,47,8.00
2015,04,29,06,48,8.00
2015,04,29,06,49,8.00
2015,04,29,06,50,8.10
2015,04,29,06,51,8.10
2015,04,29,06,52,8.10
2015,04,29,06,53,8.10
2015,04,29,06,54,8.20
2015,04,29,06,55,8.20
2015,04,29,06,56,8.20
2015,04,29,06,57,8.20
2015,04,29,06,58,8.20
2015,04,29,06,59,8.20
2015,04,29,07,00,8.30
2015,04,29,07,01,8.30
2015,04,29,07,02,8.30
2015,04,29,07,03,8.30
2015,04,29,07,04,8.30
2015,04,29,07,05,8.30
2015,04,29,07,06,8.30
2015,04,29,07,07,8.30
2015,04,29,07,08,8.30
2015,04,29,07,09,8.30
2015,04,29,07,10,8.30
2015,04,29,07,11,8.30
2015,04,29,07,12,8.30
2015,04,29,07,13,8.30
2015,04,29,07,14,8.30
2015,04,29,07,15,8.30
2015,04,29,07,16,8.30
2015,04,29,07,17,8.30
2015,04,29,07,18,8.30
2015,04,29,07,19,8.30
2015,04,29,07,20,8.30
2015,04,29,07,21,8.30
2015,04,29,07,22,8.30
2015,04,29,07,23,8.30
2015,04,29,07,24,8.30
2015,04,29,07,25,8.30
2015,04,29,07,26,8.30
2015,04,29,07,27,8.30
2015,04,29,07,28,8.30
2015,04,29,07,29,8.30
2015,04,29,07,30,8.30
2015,04,29,07,31,8.40
2015,04,29,07,32,8.40
2015,04,29,07,33,8.40
2015,04,29,07,34,8.40
2015,04,29,07,35,8.50
2015,04,29,07,36,8.50
2015,04,29,07,37,8.50
2015,04,29,07,38,8.50
2015,04,29,07,39,8.50
2015,04,29,07,40,8.60
2015,04,29,07,41,8.60
2015,04,29,07,42,8.60
2015,04,29,07,43,8.60
2015,04,29,07,44,8.60
2015,04,29,07,45,8.70
2015,04,29,07,46,8.70
2015,04,29,07,47,8.70
2015,04,29,07,48,8.70
2015,04,29,07,49,8.70
2015,04,29,07,50,8.80
2015,04,29,07,51,8.80
2015,04,29,07,52,8.80
2015,04,29,07,53,8.80
2015,04,29,07,54,8.80
2015,04,29,07,55,8.80
2015,04,29,07,56,8.90
2015,04,29,07,57,8.90
2015,04,29,07,58,8.90
2015,04,29,07,59,8.90
2015,04,29,08,00,8.90
2015,04,29,08,01,9.00
2015,04,29,08,02,9.00
2015,04,29,08,03,9.00
2015,04,29,08,04,9.00
2015,04,29,08,05,9.00
2015,04,29,08,06,9.10
2015,04,29,08,07,9.10
2015,04,29,08,08,9.10
2015,04,29,08,09,9.10
2015,04,29,08,10,9.10
2015,04,29,08,11,9.20
2015,04,29,08,12,9.20
2015,04,29,08,13,9.20
2015,04,29,08,14,9.30
2015,04,29,08,15,9.30
2015,04,29,08,16,9.40
2015,04,29,08,17,9.40
2015,04,29,08,18,9.50
2015,04,29,08,19,9.50
2015,04,29,08,20,9.60
2015,04,29,08,21,9.70
2015,04,29,08,22,9.70
2015,04,29,08,23,9.70
2015,04,29,08,24,9.80
2015,04,29,08,25,9.80
2015,04,29,08,26,9.90
2015,04,29,08,27,9.90
2015,04,29,08,28,9.90
2015,04,29,08,29,10.00
2015,04,29,08,30,10.00
2015,04,29,08,31,10.00
2015,04,29,08,32,10.00
2015,04,29,08,33,10.10
2015,04,29,08,34,10.10
2015,04,29,08,35,10.10
2015,04,29,08,36,10.10
2015,04,29,08,37,10.20
2015,04,29,08,38,10.20
2015,04,29,08,39,10.20
2015,04,29,08,40,10.30
2015,04,29,08,41,10.30
2015,04,29,08,42,10.40
2015,04,29,08,43,10.40
2015,04,29,08,44,10.50
2015,04,29,08,45,10.60
2015,04,29,08,46,10.70
2015,04,29,08,47,10.80
2015,04,29,08,48,10.80
2015,04,29,08,49,10.90
2015,04,29,08,50,11.00
2015,04,29,08,51,11.00
2015,04,29,08,52,11.10
2015,04,29,08,53,11.10
2015,04,29,08,54,11.10
2015,04,29,08,55,11.10
2015,04,29,08,56,11.20
2015,04,29,08,57,11.20
2015,04,29,08,58,11.20
2015,04,29,08,59,11.20
2015,04,29,09,00,11.30
2015,04,29,09,01,11.30
2015,04,29,09,02,11.30
2015,04,29,09,03,11.40
2015,04,29,09,04,11.40
2015,04,29,09,05,11.40
2015,04,29,09,06,11.50
2015,04,29,09,07,11.50
2015,04,29,09,08,11.60
2015,04,29,09,09,11.70
2015,04,29,09,10,11.70
2015,04,29,09,11,11.80
2015,04,29,09,12,11.80
2015,04,29,09,13,11.80
2015,04,29,09,14,11.90
2015,04,29,09,15,11.90
2015,04,29,09,16,11.90
2015,04,29,09,17,11.90
2015,04,29,09,18,11.90
2015,04,29,09,19,12.00
2015,04,29,09,20,12.00
2015,04,29,09,21,12.00
2015,04,29,09,22,12.00
2015,04,29,09,23,12.00
2015,04,29,09,24,12.00
2015,04,29,09,25,12.00
2015,04,29,09,26,12.00
2015,04,29,09,27,12.10
2015,04,29,09,28,12.10
2015,04,29,09,29,12.10
2015,04,29,09,30,12.10
2015,04,29,09,31,12.20
2015,04,29,09,32,12.20
2015,04,29,09,33,12.20
2015,04,29,09,34,12.30
2015,04,29,09,35,12.20
2015,04,29,09,36,12.20
2015,04,29,09,37,12.20
2015,04,29,09,38,12.30
2015,04,29,09,39,12.30
2015,04,29,09,40,12.30
2015,04,29,09,41,12.30
2015,04,29,09,42,12.30
2015,04,29,09,43,12.30
2015,04,29,09,44,12.30
2015,04,29,09,45,12.30
2015,04,29,09,46,12.30
2015,04,29,09,47,12.30
2015,04,29,09,48,12.20
2015,04,29,09,49,12.20
2015,04,29,09,50,12.20
2015,04,29,09,51,12.20
2015,04,29,09,52,12.20
2015,04,29,09,53,12.10
2015,04,29,09,54,12.20
2015,04,29,09,55,12.20
2015,04,29,09,56,12.20
2015,04,29,09,57,12.30
2015,04,29,09,58,12.30
2015,04,29,09,59,12.40
2015,04,29,10,00,12.50
2015,04,29,10,01,12.50
2015,04,29,10,02,12.60
2015,04,29,10,03,12.60
2015,04,29,10,04,12.60
2015,04,29,10,05,12.50
2015,04,29,10,06,12.50
2015,04,29,10,07,12.50
2015,04,29,10,08,12.50
2015,04,29,10,09,12.50
2015,04,29,10,10,12.60
2015,04,29,10,11,12.60
2015,04,29,10,12,12.70
2015,04,29,10,13,12.70
2015,04,29,10,14,12.80
2015,04,29,10,15,12.80
2015,04,29,10,16,12.90
2015,04,29,10,17,12.90
2015,04,29,10,18,12.90
2015,04,29,10,19,13.00
2015,04,29,10,20,13.00
2015,04,29,10,21,13.00
2015,04,29,10,22,13.00
2015,04,29,10,23,12.90
2015,04,29,10,24,12.90
2015,04,29,10,25,12.90
2015,04,29,10,26,12.90
2015,04,29,10,27,12.90
2015,04,29,10,28,12.90
2015,04,29,10,29,12.90
2015,04,29,10,30,13.00
2015,04,29,10,31,13.00
2015,04,29,10,32,13.10
2015,04,29,10,33,13.20
2015,04,29,10,34,13.30
2015,04,29,10,35,13.40
2015,04,29,10,36,13.40
2015,04,29,10,37,13.30
2015,04,29,10,38,13.30
2015,04,29,10,39,13.30
2015,04,29,10,40,13.30
2015,04,29,10,41,13.40
2015,04,29,10,42,13.50
2015,04,29,10,43,13.50
2015,04,29,10,44,13.60
2015,04,29,10,45,13.60
2015,04,29,10,46,13.60
2015,04,29,10,47,13.60
2015,04,29,10,48,13.50
2015,04,29,10,49,13.40
2015,04,29,10,50,13.30
2015,04,29,10,51,13.30
2015,04,29,10,52,13.20
2015,04,29,10,53,13.10
2015,04,29,10,54,13.20
2015,04,29,10,55,13.20
2015,04,29,10,56,13.20
2015,04,29,10,57,13.20
2015,04,29,10,58,13.10
2015,04,29,10,59,13.10
2015,04,29,11,00,13.10
2015,04,29,11,01,13.10
2015,04,29,11,02,13.10
2015,04,29,11,03,13.00
2015,04,29,11,04,13.00
2015,04,29,11,05,12.90
2015,04,29,11,06,12.80
2015,04,29,11,07,12.80
2015,04,29,11,08,12.80
2015,04,29,11,09,12.80
2015,04,29,11,10,12.80
2015,04,29,11,11,12.80
2015,04,29,11,12,12.80
2015,04,29,11,13,12.80
2015,04,29,11,14,12.80
2015,04,29,11,15,12.80
2015,04,29,11,16,12.80
2015,04,29,11,17,12.80
2015,04,29,11,18,12.80
2015,04,29,11,19,12.70
2015,04,29,11,20,12.60
2015,04,29,11,21,12.70
2015,04,29,11,22,12.70
2015,04,29,11,23,12.70
2015,04,29,11,24,12.70
2015,04,29,11,25,12.70
2015,04,29,11,26,12.70
2015,04,29,11,27,12.80
2015,04,29,11,28,12.80
2015,04,29,11,29,12.80
2015,04,29,11,30,12.90
2015,04,29,11,31,12.90
2015,04,29,11,32,12.90
2015,04,29,11,33,12.90
2015,04,29,11,34,12.90
2015,04,29,11,35,12.90
2015,04,29,11,36,12.90
2015,04,29,11,37,12.90
2015,04,29,11,38,12.90
2015,04,29,11,39,12.90
2015,04,29,11,40,12.80
2015,04,29,11,41,12.80
2015,04,29,11,42,12.80
2015,04,29,11,43,12.80
2015,04,29,11,44,12.70
2015,04,29,11,45,12.70
2015,04,29,11,46,12.70
2015,04,29,11,47,12.70
2015,04,29,11,48,12.60
2015,04,29,11,49,12.60
2015,04,29,11,50,12.60
2015,04,29,11,51,12.60
2015,04,29,11,52,12.50
2015,04,29,11,53,12.40
2015,04,29,11,54,12.50
2015,04,29,11,55,12.50
2015,04,29,11,56,12.60
2015,04,29,11,57,12.70
2015,04,29,11,58,12.80
2015,04,29,11,59,12.90
2015,04,29,12,00,13.00
2015,04,29,12,01,13.20
2015,04,29,12,02,13.30
2015,04,29,12,03,13.30
2015,04,29,12,04,13.40
2015,04,29,12,05,13.50
2015,04,29,12,06,13.50
2015,04,29,12,07,13.60
2015,04,29,12,08,13.60
2015,04,29,12,09,13.70
2015,04,29,12,10,13.70
2015,04,29,12,11,13.80
2015,04,29,12,12,13.80
2015,04,29,12,13,13.90
2015,04,29,12,14,13.90
2015,04,29,12,15,14.00
2015,04,29,12,16,14.10
2015,04,29,12,17,14.20
2015,04,29,12,18,14.30
2015,04,29,12,19,14.30
2015,04,29,12,20,14.40
2015,04,29,12,21,14.50
2015,04,29,12,22,14.60
2015,04,29,12,23,14.70
2015,04,29,12,24,14.70
2015,04,29,12,25,14.70
2015,04,29,12,26,14.70
2015,04,29,12,27,14.60
2015,04,29,12,28,14.50
2015,04,29,12,29,14.40
2015,04,29,12,30,14.30
2015,04,29,12,31,14.20
2015,04,29,12,32,14.10
2015,04,29,12,33,14.10
2015,04,29,12,34,14.00
2015,04,29,12,35,14.00
2015,04,29,12,36,14.10
2015,04,29,12,37,14.10
2015,04,29,12,38,14.10
2015,04,29,12,39,14.10
2015,04,29,12,40,14.00
2015,04,29,12,41,14.00
2015,04,29,12,42,14.00
2015,04,29,12,43,14.00
2015,04,29,12,44,14.10
2015,04,29,12,45,14.20
2015,04,29,12,46,14.30
2015,04,29,12,47,14.30
2015,04,29,12,48,14.40
2015,04,29,12,49,14.40
2015,04,29,12,50,14.40
2015,04,29,12,51,14.40
2015,04,29,12,52,14.40
2015,04,29,12,53,14.30
2015,04,29,12,54,14.30
2015,04,29,12,55,14.30
2015,04,29,12,56,14.30
2015,04,29,12,57,14.20
2015,04,29,12,58,14.20
2015,04,29,12,59,14.10
2015,04,29,13,00,14.10
2015,04,29,13,01,14.00
2015,04,29,13,02,14.00
2015,04,29,13,03,13.90
2015,04,29,13,04,13.90
2015,04,29,13,05,13.80
2015,04,29,13,06,13.80
2015,04,29,13,07,13.70
2015,04,29,13,08,13.70
2015,04,29,13,09,13.70
2015,04,29,13,10,13.60
2015,04,29,13,11,13.50
2015,04,29,13,12,13.50
2015,04,29,13,13,13.50
2015,04,29,13,14,13.50
2015,04,29,13,15,13.50
2015,04,29,13,16,13.40
2015,04,29,13,17,13.40
2015,04,29,13,18,13.30
2015,04,29,13,19,13.30
2015,04,29,13,20,13.20
2015,04,29,13,21,13.20
2015,04,29,13,22,13.20
2015,04,29,13,23,13.20
2015,04,29,13,24,13.30
2015,04,29,13,25,13.40
2015,04,29,13,26,13.50
2015,04,29,13,27,13.60
2015,04,29,13,28,13.70
2015,04,29,13,29,13.80
2015,04,29,13,30,13.90
2015,04,29,13,31,14.00
2015,04,29,13,32,14.10
2015,04,29,13,33,14.30
2015,04,29,13,34,14.30
2015,04,29,13,35,14.40
2015,04,29,13,36,14.40
2015,04,29,13,37,14.40
2015,04,29,13,38,14.30
2015,04,29,13,39,14.20
2015,04,29,13,40,14.00
2015,04,29,13,41,13.90
2015,04,29,13,42,13.90
2015,04,29,13,43,13.80
2015,04,29,13,44,13.70
2015,04,29,13,45,13.60
2015,04,29,13,46,13.60
2015,04,29,13,47,13.60
2015,04,29,13,48,13.60
2015,04,29,13,49,13.60
2015,04,29,13,50,13.70
2015,04,29,13,51,13.80
2015,04,29,13,52,13.80
2015,04,29,13,53,13.80
2015,04,29,13,54,13.80
2015,04,29,13,55,13.80
2015,04,29,13,56,13.60
2015,04,29,13,57,13.50
2015,04,29,13,58,13.40
2015,04,29,13,59,13.40
2015,04,29,14,00,13.40
2015,04,29,14,01,13.50
2015,04,29,14,02,13.60
2015,04,29,14,03,13.60
2015,04,29,14,04,13.70
2015,04,29,14,05,13.60
2015,04,29,14,06,13.60
2015,04,29,14,07,13.50
2015,04,29,14,08,13.40
2015,04,29,14,09,13.30
2015,04,29,14,10,13.20
2015,04,29,14,11,13.20
2015,04,29,14,12,13.20
2015,04,29,14,13,13.20
2015,04,29,14,14,13.20
2015,04,29,14,15,13.20
2015,04,29,14,16,13.20
2015,04,29,14,17,13.20
2015,04,29,14,18,13.20
2015,04,29,14,19,13.20
2015,04,29,14,20,13.20
2015,04,29,14,21,13.20
2015,04,29,14,22,13.20
2015,04,29,14,23,13.20
2015,04,29,14,24,13.20
2015,04,29,14,25,13.20
2015,04,29,14,26,13.20
2015,04,29,14,27,13.20
2015,04,29,14,28,13.30
2015,04,29,14,29,13.30
2015,04,29,14,30,13.40
2015,04,29,14,31,13.50
2015,04,29,14,32,13.60
2015,04,29,14,33,13.70
2015,04,29,14,34,13.80
2015,04,29,14,35,13.80
2015,04,29,14,36,13.90
2015,04,29,14,37,13.90
2015,04,29,14,38,13.90
2015,04,29,14,39,13.80
2015,04,29,14,40,13.80
2015,04,29,14,41,13.80
2015,04,29,14,42,13.80
2015,04,29,14,43,13.80
2015,04,29,14,44,13.80
2015,04,29,14,45,13.80
2015,04,29,14,46,13.70
2015,04,29,14,47,13.60
2015,04,29,14,48,13.60
2015,04,29,14,49,13.60
2015,04,29,14,50,13.60
2015,04,29,14,51,13.60
2015,04,29,14,52,13.60
2015,04,29,14,53,13.60
2015,04,29,14,54,13.50
2015,04,29,14,55,13.50
2015,04,29,14,56,13.40
2015,04,29,14,57,13.40
2015,04,29,14,58,13.30
2015,04,29,14,59,13.30
2015,04,29,15,00,13.20
2015,04,29,15,01,13.10
2015,04,29,15,02,13.10
2015,04,29,15,03,13.00
2015,04,29,15,04,13.00
2015,04,29,15,05,12.90
2015,04,29,15,06,12.90
2015,04,29,15,07,12.90
2015,04,29,15,08,12.90
2015,04,29,15,09,12.90
2015,04,29,15,10,12.80
2015,04,29,15,11,12.80
2015,04,29,15,12,12.80
2015,04,29,15,13,12.80
2015,04,29,15,14,12.90
2015,04,29,15,15,13.00
2015,04,29,15,16,13.00
2015,04,29,15,17,13.10
2015,04,29,15,18,13.10
2015,04,29,15,19,13.10
2015,04,29,15,20,13.10
2015,04,29,15,21,13.10
2015,04,29,15,22,13.10
2015,04,29,15,23,13.20
2015,04,29,15,24,13.30
2015,04,29,15,25,13.50
2015,04,29,15,26,13.60
2015,04,29,15,27,13.80
2015,04,29,15,28,13.90
2015,04,29,15,29,14.00
2015,04,29,15,30,14.10
2015,04,29,15,31,14.20
2015,04,29,15,32,14.20
2015,04,29,15,33,14.10
2015,04,29,15,34,14.10
2015,04,29,15,35,14.20
2015,04,29,15,36,14.20
2015,04,29,15,37,14.30
2015,04,29,15,38,14.30
2015,04,29,15,39,14.30
2015,04,29,15,40,14.40
2015,04,29,15,41,14.50
2015,04,29,15,42,14.50
2015,04,29,15,43,14.50
2015,04,29,15,44,14.50
2015,04,29,15,45,14.50
2015,04,29,15,46,14.60
2015,04,29,15,47,14.60
2015,04,29,15,48,14.50
2015,04,29,15,49,14.50
2015,04,29,15,50,14.50
2015,04,29,15,51,14.60
2015,04,29,15,52,14.50
2015,04,29,15,53,14.50
2015,04,29,15,54,14.40
2015,04,29,15,55,14.40
2015,04,29,15,56,14.40
2015,04,29,15,57,14.50
2015,04,29,15,58,14.50
2015,04,29,15,59,14.60
2015,04,29,16,00,14.60
2015,04,29,16,01,14.60
2015,04,29,16,02,14.50
2015,04,29,16,03,14.40
2015,04,29,16,04,14.30
2015,04,29,16,05,14.10
2015,04,29,16,06,14.00
2015,04,29,16,07,13.90
2015,04,29,16,08,13.80
2015,04,29,16,09,13.70
2015,04,29,16,10,13.70
2015,04,29,16,11,13.80
2015,04,29,16,12,13.80
2015,04,29,16,13,13.70
2015,04,29,16,14,13.70
2015,04,29,16,15,13.70
2015,04,29,16,16,13.70
2015,04,29,16,17,13.70
2015,04,29,16,18,13.80
2015,04,29,16,19,13.80
2015,04,29,16,20,13.90
2015,04,29,16,21,13.90
2015,04,29,16,22,13.90
2015,04,29,16,23,13.90
2015,04,29,16,24,13.90
2015,04,29,16,25,13.90
2015,04,29,16,26,13.80
2015,04,29,16,27,13.70
2015,04,29,16,28,13.60
2015,04,29,16,29,13.60
2015,04,29,16,30,13.60
2015,04,29,16,31,13.60
2015,04,29,16,32,13.60
2015,04,29,16,33,13.60
2015,04,29,16,34,13.50
2015,04,29,16,35,13.40
2015,04,29,16,36,13.40
2015,04,29,16,37,13.30
2015,04,29,16,38,13.20
2015,04,29,16,39,13.20
2015,04,29,16,40,13.20
2015,04,29,16,41,13.20
2015,04,29,16,42,13.10
2015,04,29,16,43,13.10
2015,04,29,16,44,13.00
2015,04,29,16,45,12.90
2015,04,29,16,46,12.80
2015,04,29,16,47,12.80
2015,04,29,16,48,12.80
2015,04,29,16,49,12.80
2015,04,29,16,50,12.80
2015,04,29,16,51,12.70
2015,04,29,16,52,12.60
2015,04,29,16,53,12.50
2015,04,29,16,54,12.40
2015,04,29,16,55,12.40
2015,04,29,16,56,12.30
2015,04,29,16,57,12.30
2015,04,29,16,58,12.30
2015,04,29,16,59,12.30
2015,04,29,17,00,12.40
2015,04,29,17,01,12.40
2015,04,29,17,02,12.50
2015,04,29,17,03,12.60
2015,04,29,17,04,12.60
2015,04,29,17,05,12.70
2015,04,29,17,06,12.80
2015,04,29,17,07,12.80
2015,04,29,17,08,12.80
2015,04,29,17,09,12.70
2015,04,29,17,10,12.70
2015,04,29,17,11,12.70
2015,04,29,17,12,12.80
2015,04,29,17,13,12.80
2015,04,29,17,14,12.90
2015,04,29,17,15,12.90
2015,04,29,17,16,13.00
2015,04,29,17,17,13.00
2015,04,29,17,18,13.00
2015,04,29,17,19,13.00
2015,04,29,17,20,12.90
2015,04,29,17,21,12.80
2015,04,29,17,22,12.80
2015,04,29,17,23,12.70
2015,04,29,17,24,12.60
2015,04,29,17,25,12.60
2015,04,29,17,26,12.60
2015,04,29,17,27,12.60
2015,04,29,17,28,12.50
2015,04,29,17,29,12.50
2015,04,29,17,30,12.60
2015,04,29,17,31,12.60
2015,04,29,17,32,12.60
2015,04,29,17,33,12.60
2015,04,29,17,34,12.60
2015,04,29,17,35,12.60
2015,04,29,17,36,12.50
2015,04,29,17,37,12.40
2015,04,29,17,38,12.30
2015,04,29,17,39,12.30
2015,04,29,17,40,12.30
2015,04,29,17,41,12.20